When you browse on this site, cookies collect data to enhance your experience and personalize the content and advertising you see.
Visit our Privacy Policy to learn more. By continuing to use the site, you agree to this use of cookies and data.
  • In Hungary
  • List of Countries
  • For 7 days
  • Water Temperature
  • Satellite Maps
  • Weather Map
  • News
  • Weather Widgets
  • user-avatar
    Login

    Hourly Weather Cardiff

    Today, 15 December, Saturday

    Time Temperature Precipitation Wind Pressure Humidity
    00:00 0°C° 0 mm 8 mps 761 mmHg 78%
    01:00 +1°C° 0.1 mm 8 mps 760 mmHg 78%
    02:00 +1°C° 0.1 mm 9 mps 759 mmHg 79%
    03:00 +1°C° 0.1 mm 9 mps 758 mmHg 79%
    04:00 +1°C° 0.6 mm 9 mps 757 mmHg 81%
    05:00 +1°C° 0.6 mm 10 mps 757 mmHg 83%
    06:00 +2°C° 0.6 mm 10 mps 756 mmHg 86%
    07:00 +2°C° 0.6 mm 10 mps 755 mmHg 87%
    08:00 +2°C° 0.6 mm 11 mps 754 mmHg 89%
    09:00 +3°C° 0.6 mm 11 mps 753 mmHg 90%
    10:00 +3°C° 1.8 mm 11 mps 752 mmHg 91%
    11:00 +4°C° 1.8 mm 11 mps 751 mmHg 91%
    12:00 +4°C° 1.8 mm 11 mps 750 mmHg 92%
    13:00 +6°C° 1.8 mm 10 mps 748 mmHg 93%
    14:00 +7°C° 1.8 mm 9 mps 747 mmHg 93%
    15:00 +8°C° 1.8 mm 9 mps 745 mmHg 94%
    16:00 +8°C° 0.7 mm 10 mps 744 mmHg 90%
    17:00 +9°C° 0.7 mm 11 mps 743 mmHg 87%
    18:00 +9°C° 0.7 mm 12 mps 743 mmHg 83%
    19:00 +8°C° 0.1 mm 12 mps 744 mmHg 82%
    20:00 +7°C° 0.1 mm 12 mps 745 mmHg 81%
    21:00 +5°C° 0.1 mm 13 mps 746 mmHg 80%
    22:00 +6°C° 0.1 mm 11 mps 747 mmHg 80%
    23:00 +5°C° 0.1 mm 9 mps 748 mmHg 80%

    Tomorrow, 16 December, Sunday

    Time Temperature Precipitation Wind Pressure Humidity
    00:00 +5°C° 0.1 mm 8 mps 749 mmHg 80%
    01:00 +5°C° 0.2 mm 7 mps 750 mmHg 82%
    02:00 +4°C° 0.2 mm 6 mps 750 mmHg 84%
    03:00 +4°C° 0.2 mm 6 mps 751 mmHg 86%
    04:00 +5°C° 0.2 mm 5 mps 751 mmHg 87%
    05:00 +5°C° 0.2 mm 5 mps 751 mmHg 88%
    06:00 +5°C° 0.2 mm 5 mps 751 mmHg 88%
    07:00 +5°C° 0.1 mm 4 mps 751 mmHg 89%
    08:00 +5°C° 0.1 mm 4 mps 751 mmHg 89%
    09:00 +5°C° 0.1 mm 4 mps 752 mmHg 89%
    10:00 +6°C° 0.1 mm 5 mps 752 mmHg 86%
    11:00 +7°C° 0.1 mm 5 mps 752 mmHg 84%
    12:00 +8°C° 0.1 mm 5 mps 752 mmHg 81%
    13:00 +8°C° 0.5 mm 5 mps 751 mmHg 82%
    14:00 +7°C° 0.5 mm 5 mps 751 mmHg 83%
    15:00 +7°C° 0.5 mm 4 mps 751 mmHg 84%
    16:00 +6°C° 0.2 mm 4 mps 752 mmHg 86%
    17:00 +7°C° 0.2 mm 3 mps 752 mmHg 88%
    18:00 +5°C° 0.2 mm 3 mps 753 mmHg 90%
    19:00 +5°C° 0 mm 3 mps 753 mmHg 90%
    20:00 +5°C° 0 mm 3 mps 753 mmHg 89%
    21:00 +4°C° 0 mm 3 mps 754 mmHg 88%
    22:00 +4°C° 0 mm 3 mps 754 mmHg 88%
    23:00 +4°C° 0 mm 3 mps 755 mmHg 88%

    Day after tomorrow, 17 December, Monday

    Time Temperature Precipitation Wind Pressure Humidity
    00:00 +4°C° 0 mm 3 mps 756 mmHg 87%
    01:00 +4°C° 0 mm 3 mps 756 mmHg 88%
    02:00 +4°C° 0 mm 3 mps 757 mmHg 88%
    03:00 +4°C° 0 mm 4 mps 757 mmHg 88%
    04:00 +4°C° 0 mm 3 mps 758 mmHg 88%
    05:00 +4°C° 0 mm 3 mps 758 mmHg 88%
    06:00 +4°C° 0 mm 3 mps 758 mmHg 88%
    07:00 +4°C° 0 mm 3 mps 759 mmHg 88%
    08:00 +4°C° 0 mm 3 mps 759 mmHg 88%
    09:00 +4°C° 0 mm 3 mps 760 mmHg 88%
    10:00 +6°C° 0 mm 4 mps 760 mmHg 86%
    11:00 +7°C° 0 mm 4 mps 760 mmHg 83%
    12:00 +8°C° 0 mm 5 mps 761 mmHg 81%
    13:00 +8°C° 0 mm 5 mps 760 mmHg 82%
    14:00 +8°C° 0 mm 5 mps 760 mmHg 84%
    15:00 +8°C° 0 mm 5 mps 760 mmHg 85%
    16:00 +8°C° 0 mm 6 mps 760 mmHg 87%
    17:00 +8°C° 0 mm 6 mps 760 mmHg 89%
    18:00 +8°C° 0 mm 7 mps 760 mmHg 90%
    19:00 +8°C° 0 mm 7 mps 759 mmHg 90%
    20:00 +8°C° 0 mm 7 mps 759 mmHg 90%
    21:00 +7°C° 0 mm 8 mps 759 mmHg 90%
    22:00 +9°C° 0 mm 8 mps 759 mmHg 90%
    23:00 +9°C° 0 mm 8 mps 758 mmHg 89%

    18 December, Tuesday

    Time Temperature Precipitation Wind Pressure Humidity
    00:00 +8°C° 0 mm 9 mps 758 mmHg 89%
    01:00 +8°C° 0.1 mm 9 mps 757 mmHg 88%
    02:00 +10°C° 0.1 mm 9 mps 757 mmHg 88%
    03:00 +9°C° 0.1 mm 10 mps 756 mmHg 87%
    04:00 +9°C° 0.1 mm 10 mps 756 mmHg 86%
    05:00 +8°C° 0.1 mm 10 mps 755 mmHg 85%
    06:00 +8°C° 0.1 mm 10 mps 754 mmHg 84%
    07:00 +8°C° 0.1 mm 11 mps 753 mmHg 83%
    08:00 +8°C° 0.1 mm 12 mps 753 mmHg 82%
    09:00 +8°C° 0.1 mm 12 mps 752 mmHg 81%
    10:00 +7°C° 0.9 mm 12 mps 751 mmHg 82%
    11:00 +7°C° 0.9 mm 12 mps 750 mmHg 83%
    12:00 +7°C° 0.9 mm 12 mps 749 mmHg 84%
    13:00 +7°C° 1.8 mm 12 mps 749 mmHg 86%
    14:00 +7°C° 1.8 mm 11 mps 748 mmHg 88%
    15:00 +7°C° 1.8 mm 10 mps 747 mmHg 89%
    16:00 +7°C° 1.6 mm 9 mps 747 mmHg 89%
    17:00 +8°C° 1.6 mm 7 mps 747 mmHg 90%
    18:00 +8°C° 1.6 mm 5 mps 747 mmHg 90%
    19:00 +8°C° 0.8 mm 5 mps 748 mmHg 90%
    20:00 +7°C° 0.8 mm 5 mps 748 mmHg 89%
    21:00 +7°C° 0.8 mm 4 mps 749 mmHg 89%
    22:00 +7°C° 0.2 mm 4 mps 749 mmHg 89%
    23:00 +7°C° 0.2 mm 5 mps 750 mmHg 88%

    19 December, Wednesday

    Time Temperature Precipitation Wind Pressure Humidity
    00:00 +7°C° 0.2 mm 5 mps 750 mmHg 88%
    01:00 +6°C° 0.1 mm 5 mps 751 mmHg 88%
    02:00 +6°C° 0.1 mm 5 mps 751 mmHg 88%
    03:00 +5°C° 0.1 mm 4 mps 752 mmHg 89%
    04:00 +5°C° 0.1 mm 4 mps 752 mmHg 88%
    05:00 +5°C° 0.1 mm 4 mps 753 mmHg 88%
    06:00 +5°C° 0.1 mm 4 mps 753 mmHg 87%
    07:00 +4°C° 0 mm 4 mps 754 mmHg 87%
    08:00 +4°C° 0 mm 4 mps 754 mmHg 87%
    09:00 +4°C° 0 mm 4 mps 755 mmHg 87%
    10:00 +5°C° 0.1 mm 4 mps 755 mmHg 85%
    11:00 +6°C° 0.1 mm 5 mps 755 mmHg 82%
    12:00 +7°C° 0.1 mm 5 mps 755 mmHg 79%
    13:00 +7°C° 0.1 mm 5 mps 755 mmHg 80%
    14:00 +7°C° 0.1 mm 5 mps 755 mmHg 81%
    15:00 +7°C° 0.1 mm 5 mps 755 mmHg 81%
    16:00 +6°C° 0.1 mm 5 mps 755 mmHg 83%
    17:00 +6°C° 0.1 mm 5 mps 755 mmHg 84%
    18:00 +5°C° 0.1 mm 5 mps 755 mmHg 85%
    19:00 +5°C° 0.3 mm 5 mps 756 mmHg 85%
    20:00 +5°C° 0.3 mm 5 mps 756 mmHg 86%
    21:00 +5°C° 0.3 mm 5 mps 756 mmHg 86%
    22:00 +5°C° 0.3 mm 5 mps 756 mmHg 86%
    23:00 +5°C° 0.3 mm 5 mps 756 mmHg 86%

    20 December, Thursday

    Time Temperature Precipitation Wind Pressure Humidity
    00:00 +5°C° 0.3 mm 5 mps 756 mmHg 86%
    01:00 +5°C° 0.3 mm 5 mps 756 mmHg 86%
    02:00 +5°C° 0.3 mm 5 mps 756 mmHg 87%
    03:00 +5°C° 0.3 mm 5 mps 755 mmHg 87%
    04:00 +5°C° 0.3 mm 5 mps 756 mmHg 87%
    05:00 +5°C° 0.3 mm 5 mps 756 mmHg 87%
    06:00 +5°C° 0.3 mm 5 mps 756 mmHg 87%
    07:00 +5°C° 0.2 mm 5 mps 756 mmHg 87%
    08:00 +5°C° 0.2 mm 5 mps 756 mmHg 87%
    09:00 +5°C° 0.2 mm 4 mps 757 mmHg 86%
    10:00 +6°C° 0 mm 5 mps 757 mmHg 83%
    11:00 +7°C° 0 mm 5 mps 757 mmHg 81%
    12:00 +8°C° 0 mm 5 mps 758 mmHg 78%
    13:00 +7°C° 0 mm 5 mps 758 mmHg 79%
    14:00 +7°C° 0 mm 5 mps 758 mmHg 80%
    15:00 +7°C° 0 mm 4 mps 758 mmHg 81%
    16:00 +6°C° 0 mm 4 mps 759 mmHg 83%
    17:00 +5°C° 0 mm 4 mps 759 mmHg 85%
    18:00 +5°C° 0 mm 3 mps 759 mmHg 87%
    19:00 +5°C° 0 mm 3 mps 759 mmHg 87%
    20:00 +5°C° 0 mm 4 mps 759 mmHg 87%
    21:00 +5°C° 0 mm 4 mps 759 mmHg 87%
    22:00 +5°C° 0.5 mm 4 mps 758 mmHg 88%
    23:00 +6°C° 0.5 mm 5 mps 757 mmHg 89%
    Show more